www.pogodaiklimat.ru

Погода и климат >> Архив погоды >> Финляндия >> Ревонлахти


ПОГОДА в Ревонлахти

  • Прогноз погоды в Ревонлахти
  • Монитор погоды в Ревонлахти

АРХИВ ПОГОДЫ в Ревонлахти

Время (UTC), дата Ветер
(напр.,м/с)
 
Видим.   Явления Облачность Т
(С)
Тd
(С)
f
(%)
Тe
(С)
Тes
(С)
Комфортность P
(гПа)
Po
(гПа)
Тmin
(С)
Tmax
(С)
R
(мм)
R24
(мм)
S
(см)
22 15.07 В 1-2
{3}
н/о н/о +9.2 +8.5 95 +8 +8 1010.7 1004.8
23 15.07 В 1-2
{3}
н/о н/о +7.6 +7.2 97 +7 +7 1011.0 1005.0
00 16.07 В 2-2
{2}
н/о н/о +9.6 +9.0 96 +8 +8 1011.0 1005.0
01 16.07 В 2-3
{3}
н/о н/о +9.6 +8.7 94 +8 +8 1011.2 1005.2
02 16.07 В 2 н/о н/о +9.5 +8.5 93 +8 +8 1011.4 1005.4
03 16.07 В 3-4
{4}
н/о н/о +10.0 +8.9 93 +8 +8 1011.7 1005.7
04 16.07 В 2 н/о н/о +10.5 +9.2 92 +9 +9 1011.8 1005.9
05 16.07 В 3-4
{4}
н/о н/о +11.9 +9.9 88 +10 +10 1011.9 1006.0
06 16.07 СВ 4-5
{5}
н/о н/о +14.6 +10.1 74 +13 +13 1011.9 1006.0 +7.6 +14.6
07 16.07 В 3-5
{6}
н/о н/о +14.6 +9.3 70 +14 +14 1012.0 1006.1
08 16.07 В 4 н/о н/о +15.7 +9.3 66 +15 +15 1011.9 1006.1
09 16.07 В 3-6
{6}
н/о н/о +16.3 +8.4 59 +16 +16 1012.1 1006.3
10 16.07 В 3-6
{6}
н/о н/о +17.1 +8.6 57 +17 +17 1012.3 1006.4
11 16.07 СВ 4 н/о н/о +16.3 +7.5 56 +16 +16 1012.3 1006.4
12 16.07 Ю 2-3
{5}
н/о н/о +16.7 +7.5 55 +17 +17 1012.3 1006.5
14 16.07 СВ 3-5
{6}
н/о н/о +18.2 +7.0 48 +18 +18 1012.0 1006.2
15 16.07 С 3-5
{6}
н/о н/о +17.2 +8.6 57 +17 +17 1012.2 1006.4
16 16.07 С 3 н/о н/о +17.2 +8.9 58 +17 +17 1012.4 1006.6
17 16.07 С 3 н/о н/о +16.7 +8.7 59 +17 +17 1012.6 1006.8
18 16.07 С 2-4
{5}
н/о н/о +15.7 +8.4 62 +16 +16 1012.8 1006.9 +14.4 +18.9
19 16.07 С 2-4
{4}
н/о н/о +14.8 +9.0 68 +15 +15 1012.7 1006.8
20 16.07 С 2-3
{4}
н/о н/о +14.1 +9.6 74 +14 +14 1012.8 1006.9
21 16.07 СВ 2-3
{3}
н/о н/о +12.4 +9.5 82 +11 +11 1012.9 1007.0
22 16.07 В 1-1
{2}
н/о н/о +9.7 +8.5 92 +9 +9 1013.0 1007.0
23 16.07 СВ 1-1
{2}
н/о н/о +8.1 +7.8 98 +7 +7 1013.0 1007.0
00 17.07 СВ 1-1
{2}
н/о н/о +6.7 +6.5 99 +5 +5 1012.9 1006.9
01 17.07 СВ 2 н/о н/о +6.9 +6.7 99 +4 +4 1012.8 1006.8
02 17.07 В 1 н/о н/о +7.1 +6.8 98 +6 +6 1012.8 1006.7
03 17.07 штиль 0
{2}
н/о н/о +8.7 +8.3 97 +8 +8 1012.6 1006.6
04 17.07 В 1-2
{2}
н/о н/о +10.0 +9.3 95 +9 +9 1012.6 1006.6
05 17.07 ЮВ 1 н/о н/о +11.3 +9.6 89 +11 +11 1012.6 1006.6
06 17.07 ЮЗ 2-3
{3}
н/о н/о +12.8 +10.8 88 +12 +12 1012.6 1006.7 +6.0 +15.7
07 17.07 З 2-2
{3}
н/о н/о +13.3 +11.3 88 +13 +13 1012.6 1006.7
08 17.07 Ю 1-2
{2}
н/о н/о +14.6 +12.0 84 +15 +15 1012.7 1006.8
09 17.07 З 1-3
{3}
н/о н/о +15.8 +9.4 66 +17 +17 1012.6 1006.8
10 17.07 ЮВ 3 н/о н/о +16.1 +10.1 68 +16 +16 1012.6 1006.7
11 17.07 Ю 2 н/о н/о +16.3 +9.1 62 +16 +16 1012.5 1006.7
12 17.07 З 4-6
{6}
н/о н/о +13.6 +11.3 86 +12 +12 1012.7 1006.8
13 17.07 З 3 н/о н/о +15.7 +11.0 74 +15 +15 1012.5 1006.7
14 17.07 С 1 н/о н/о +16.0 +10.3 69 +17 +17 1012.3 1006.4
15 17.07 С 2-4
{5}
н/о н/о +15.9 +10.3 69 +16 +16 1012.3 1006.5
16 17.07 С 3 н/о н/о +15.8 +11.3 75 +15 +15 1012.2 1006.4
17 17.07 С 1 н/о н/о +15.3 +9.0 66 +16 +16 1012.1 1006.3
18 17.07 С 2-3
{5}
н/о н/о +15.1 +9.5 69 +15 +15 1012.3 1006.5 +12.8 +17.1
19 17.07 С 1 н/о н/о +14.0 +9.9 76 +14 +14 1012.3 1006.4
20 17.07 СВ 2 н/о н/о +12.0 +9.4 84 +11 +11 1012.6 1006.7
21 17.07 СВ 1-2
{2}
н/о н/о +8.8 +8.3 97 +8 +8 1012.9 1006.9
22 17.07 штиль 0-1
{2}
н/о н/о +7.9 +7.6 98 +7 +7 1013.2 1007.2
23 17.07 штиль 0 н/о н/о +6.2 +6.0 99 +5 +5 1013.3 1007.2
00 18.07 штиль 0-1
{1}
н/о н/о +4.7 +4.6 99 +3 +3 1013.4 1007.3
01 18.07 ЮЗ 1 н/о н/о +3.8 +3.6 99 +2 +2 1013.5 1007.4
02 18.07 В 1 н/о н/о +4.1 +3.9 99 +2 +2 1013.5 1007.4
03 18.07 В 2-2
{2}
н/о н/о +5.8 +5.7 99 +3 +3 1013.5 1007.4
04 18.07 штиль 0 н/о н/о +8.7 +8.6 99 +8 +8 1013.7 1007.7
05 18.07 штиль 0 н/о н/о +12.4 +11.0 91 +12 +12 1013.7 1007.8
06 18.07 СВ 2-4
{4}
н/о н/о +14.7 +11.1 79 +14 +14 1013.7 1007.8 +3.8 +15.2
07 18.07 СВ 3 н/о н/о +15.8 +11.0 73 +15 +15 1013.7 1007.8
08 18.07 СВ 2 н/о н/о +15.7 +10.8 73 +16 +16 1013.6 1007.7
09 18.07 С 3-5
{6}
н/о н/о +15.9 +11.1 73 +15 +15 1013.4 1007.6
10 18.07 С 4 н/о н/о +17.0 +10.8 67 +17 +17 1013.4 1007.5
11 18.07 СВ 3 н/о н/о +17.0 +10.9 67 +17 +17 1013.3 1007.5
12 18.07 СВ 3-4
{5}
н/о н/о +16.9 +11.3 70 +17 +17 1013.4 1007.5
13 18.07 С 3 н/о н/о +19.0 +11.6 62 +20 +20 1013.0 1007.2
14 18.07 С 3 н/о н/о +18.6 +11.3 62 +19 +19 1013.1 1007.3
15 18.07 СВ 4-5
{6}
н/о н/о +18.7 +12.0 65 +19 +19 1013.0 1007.2
16 18.07 С 3 н/о н/о +18.5 +11.3 63 +19 +19 1013.1 1007.3
17 18.07 С 3 н/о н/о +17.9 +11.9 68 +18 +18 1013.0 1007.2
18 18.07 С 1-3
{5}
н/о н/о +17.4 +12.3 72 +18 +18 1013.0 1007.1 +14.7 +19.2
19 18.07 СВ 1 н/о н/о +16.4 +11.9 75 +17 +17 1013.1 1007.3
20 18.07 С 1-2
{3}
н/о н/о +14.3 +11.6 84 +15 +15 1013.3 1007.4
21 18.07 С 1-2
{2}
н/о н/о +9.9 +9.1 95 +9 +9 1013.7 1007.7
22 18.07 С 1-3
{3}
н/о н/о +12.0 +10.5 91 +12 +12 1013.8 1007.9
23 18.07 СВ 2 н/о н/о +9.9 +9.2 95 +8 +8 1014.1 1008.1
00 19.07 С 1-2
{2}
н/о н/о +8.3 +8.1 99 +7 +7 1014.0 1008.0
01 19.07 С 1 н/о н/о +6.7 +6.6 99 +5 +5 1014.2 1008.1
02 19.07 штиль 0-2
{2}
н/о н/о +5.8 +5.7 99 +5 +5 1014.1 1008.0
03 19.07 С 1-2
{2}
н/о н/о +7.7 +7.6 99 +7 +7 1013.9 1007.9
04 19.07 С 1 н/о н/о +11.3 +10.8 97 +11 +11 1013.9 1008.0
05 19.07 С 2 н/о н/о +13.1 +11.6 91 +12 +12 1013.9 1007.9
06 19.07 С 3-5
{6}
н/о н/о +15.5 +11.7 78 +15 +15 1013.7 1007.8 +5.6 +17.4
07 19.07 СВ 4 н/о н/о +16.5 +11.0 70 +16 +16 1013.8 1007.9
08 19.07 С 3 н/о н/о +17.3 +9.5 60 +17 +17 1013.7 1007.9
09 19.07 С 4-7
{7}
н/о н/о +17.6 +9.7 60 +17 +17 1013.6 1007.8
10 19.07 С 4 н/о н/о +18.6 +10.6 60 +19 +19 1013.5 1007.7
11 19.07 С 3 н/о н/о +18.8 +10.8 60 +20 +20 1013.3 1007.5
12 19.07 С 3-6
{7}
н/о н/о +19.1 +10.8 59 +20 +20 1013.0 1007.2
13 19.07 С 3 н/о н/о +19.5 +11.6 60 +21 +21 комфорт 1012.9 1007.1
14 19.07 С 3-5
{6}
н/о н/о +20.0 +11.0 56 +22 +22 комфорт 1012.7 1006.9
15 19.07 С 4-6
{6}
н/о н/о +19.2 +10.6 57 +20 +20 1012.8 1007.1
16 19.07 С 4 н/о н/о +19.0 +10.9 59 +20 +20 1012.7 1006.9
17 19.07 С 4 н/о н/о +18.6 +10.6 60 +19 +19 1012.7 1006.9
18 19.07 С 3-5
{5}
н/о н/о +17.7 +10.7 64 +18 +18 1012.7 1006.9 +15.5 +20.2
19 19.07 С 2 н/о н/о +16.5 +11.4 72 +17 +17 1012.8 1007.0
20 19.07 СЗ 2-2
{3}
н/о н/о +14.3 +11.7 84 +14 +14 1013.2 1007.3
21 19.07 С 1-2
{3}
н/о н/о +11.8 +10.9 94 +12 +12 1013.7 1007.8
22 19.07 С 1 н/о н/о +9.9 +9.6 98 +9 +9 1013.8 1007.8
23 19.07 штиль 0-1
{1}
н/о н/о +8.8 +8.6 99 +8 +8 1013.9 1007.9
00 20.07 С 1-2
{2}
н/о н/о +7.0 +6.8 99 +6 +6 1014.2 1008.1
01 20.07 штиль 0
{2}
н/о н/о +6.9 +6.8 99 +6 +6 1014.4 1008.3
02 20.07 СВ 1
{2}
н/о н/о +6.5 +6.5 100 +5 +5 1014.5 1008.4
03 20.07 З 1-1
{1}
н/о н/о +8.8 +8.8 100 +8 +8 1014.5 1008.5
04 20.07 ЮЗ 1
{1}
н/о н/о +12.3 +12.2 99 +12 +12 1014.6 1008.6
05 20.07 штиль 0 н/о н/о +15.7 +12.9 83 +15 +15 1014.6 1008.8
06 20.07 СВ 2 н/о н/о +18.6 +13.4 72 +20 +20 1014.8 1009.0 +6.3 +18.6
07 20.07 СВ 2 н/о н/о +18.9 +12.2 65 +20 +20 1015.0 1009.2
08 20.07 СВ 2-4
{4}
н/о н/о +20.0 +12.9 64 +22 +22 комфорт 1015.0 1009.2
09 20.07 С 3-6
{6}
н/о н/о +19.3 +11.0 59 +21 +21 комфорт 1015.1 1009.3
10 20.07 СВ 4 н/о н/о +20.7 +10.7 53 +23 +23 комфорт 1015.2 1009.4
11 20.07 С 3-5
{7}
н/о н/о +20.9 +10.1 50 +23 +23 комфорт 1015.2 1009.5
12 20.07 С 3-5
{7}
н/о н/о +20.0 +10.6 55 +22 +22 комфорт 1015.6 1009.8
13 20.07 С 3 н/о н/о +21.0 +11.4 54 +24 +24 комфорт 1015.4 1009.6
14 20.07 С 2 н/о н/о +21.2 +9.9 48 +23 +23 комфорт 1015.5 1009.8
15 20.07 СЗ 2-4
{5}
н/о н/о +21.1 +9.7 48 +22 +22 комфорт 1015.3 1009.5
16 20.07 СЗ 3 н/о н/о +20.9 +9.8 49 +23 +23 комфорт 1015.4 1009.7
17 20.07 С 2 н/о н/о +20.4 +10.0 51 +23 +23 комфорт 1015.5 1009.7
18 20.07 С 2-3
{4}
н/о н/о +19.4 +10.3 56 +21 +21 комфорт 1015.6 1009.8 +17.9 +22.2
19 20.07 С 1 н/о н/о +18.2 +11.4 64 +20 +20 1015.9 1010.0
20 20.07 С 1-2
{2}
н/о н/о +13.7 +11.8 88 +14 +14 1016.3 1010.3
21 20.07 штиль 0
{2}
н/о н/о +11.5 +11.1 97 +11 +11 1016.6 1010.7
22 20.07 штиль 0 н/о н/о +9.7 +9.4 98 +9 +9 1016.9 1010.9
23 20.07 штиль 0 н/о н/о +8.3 +8.1 99 +7 +7 1017.0 1011.0
00 21.07 штиль 0
{1}
н/о н/о +6.8 +6.7 99 +6 +6 1017.2 1011.1
01 21.07 штиль 0
{1}
н/о н/о +6.3 +6.2 99 +5 +5 1017.2 1011.1
02 21.07 штиль 0 н/о н/о +6.3 +6.2 99 +5 +5 1017.2 1011.1
03 21.07 штиль 0
{1}
н/о н/о +9.0 +8.7 98 +8 +8 1017.1 1011.1
04 21.07 ЮЗ 1 н/о н/о +13.3 +11.6 89 +13 +13 1017.3 1011.4
05 21.07 ЮВ 1 н/о н/о +16.8 +10.8 68 +18 +18 1017.2 1011.3
06 21.07 Ю 2-2
{2}
н/о н/о +19.7 +12.2 62 +22 +22 комфорт 1017.2 1011.4 +5.8 +19.7
07 21.07 Ю 1 н/о н/о +20.8 +10.5 52 +24 +24 комфорт 1017.1 1011.4
08 21.07 ЮЗ 1 н/о н/о +21.6 +11.3 52 +24 +24 комфорт 1017.2 1011.5
09 21.07 С 1-2
{3}
н/о н/о +22.8 +10.8 47 +25 +25 комфорт 1017.1 1011.4
10 21.07 СВ 1 н/о н/о +23.1 +10.5 45 +25 +25 комфорт 1016.9 1011.2
11 21.07 В 3 н/о н/о +24.1 +11.8 46 +26 +26 жарко 1016.8 1011.1
12 21.07 З 1-4
{4}
н/о н/о +24.5 +10.7 42 +26 +26 жарко 1016.7 1011.0
13 21.07 С 4 н/о н/о +24.3 +12.2 47 +26 +26 жарко 1016.5 1010.8
14 21.07 С 3 н/о н/о +24.1 +11.2 44 +25 +25 комфорт 1016.3 1010.6
15 21.07 С 2-4
{6}
н/о н/о +23.9 +11.3 45 +25 +25 комфорт 1016.0 1010.3
16 21.07 С 2 н/о н/о +24.3 +11.8 46 +26 +26 жарко 1016.0 1010.3
17 21.07 С 2-3
{4}
н/о н/о +23.6 +12.4 49 +25 +25 комфорт 1015.8 1010.1
18 21.07 СВ 2-3
{4}
н/о н/о +22.1 +12.5 54 +25 +25 комфорт 1015.9 1010.2 +19.7 +25.4
19 21.07 С 1-2
{3}
н/о н/о +20.5 +12.6 60 +24 +24 комфорт 1015.9 1010.2
20 21.07 СВ 1-1
{2}
н/о н/о +16.7 +13.6 82 +18 +18 1016.2 1010.3
21 21.07 СВ 1-1
{2}
н/о н/о +14.1 +13.3 95 +14 +14 1016.2 1010.3
22 21.07 В 1-2
{2}
н/о н/о +12.3 +11.6 95 +12 +12 1016.3 1010.3
23 21.07 В 2-2
{2}
н/о н/о +11.6 +11.1 97 +10 +10 1016.5 1010.5
00 22.07 ЮВ 2-3
{3}
н/о н/о +12.0 +10.8 92 +11 +11 1016.4 1010.4
01 22.07 ЮВ 2 н/о н/о +11.4 +10.5 94 +10 +10 1016.4 1010.4
02 22.07 ЮВ 1-2
{4}
н/о н/о +12.3 +10.5 89 +12 +12 1016.3 1010.4
03 22.07 ЮВ 2-2
{2}
н/о н/о +14.3 +11.0 81 +14 +14 1016.1 1010.2
04 22.07 ЮВ 1-2
{2}
н/о н/о +16.4 +12.7 79 +17 +17 1015.9 1010.1
05 22.07 ЮВ 1 н/о н/о +19.4 +12.6 65 +22 +22 комфорт 1015.8 1010.0
06 22.07 ЮВ 2-3
{3}
н/о н/о +22.6 +14.1 59 +26 +26 жарко 1015.7 1010.0 +10.8 +22.6
07 22.07 ЮВ 2 н/о н/о +24.2 +13.7 52 +26 +26 жарко 1015.6 1009.9
08 22.07 В 3 н/о н/о +25.4 +12.1 43 +27 +27 жарко 1015.4 1009.8
09 22.07 Ю 3-6
{6}
н/о н/о +26.3 +10.2 36 +27 +27 жарко 1015.4 1009.7
10 22.07 В 3 н/о н/о +26.0 +11.0 39 +27 +27 жарко 1015.4 1009.7
11 22.07 В 3 н/о н/о +26.6 +10.1 35 +27 +27 жарко 1015.2 1009.5
12 22.07 Ю 3-5
{6}
н/о н/о +27.7 +8.1 29 +27 +27 жарко 1014.8 1009.1
13 22.07 В 4 н/о н/о +27.6 +9.3 32 +28 +28 жарко 1014.5 1008.8
14 22.07 В 2 н/о н/о +26.2 +11.1 39 +27 +27 жарко 1014.3 1008.6
15 22.07 ЮВ 1-3
{4}
н/о н/о +23.9 +13.8 53 +26 +26 жарко 1014.2 1008.5
16 22.07 Ю 1 н/о н/о +24.5 +12.6 47 +26 +26 жарко 1014.4 1008.8
17 22.07 Ю 2 н/о н/о +24.8 +12.2 45 +26 +26 жарко 1014.3 1008.6
18 22.07 ЮЗ 1-1
{3}
н/о н/о +21.3 +13.9 63 +24 +24 комфорт 1014.4 1008.6 +21.3 +28.2
20 22.07 В 1-2
{2}
н/о н/о +16.6 +14.9 90 +17 +17 1014.5 1008.7
21 22.07 В 1-1
{2}
н/о н/о +14.0 +13.2 95 +14 +14 1014.9 1009.0
22 22.07 ЮВ 3 н/о н/о +13.9 +12.8 93 +13 +13 1015.1 1009.2

 

Местоположение метеостанции Ревонлахти (Финляндия): широта 64.68 долгота 25.09 высота над уровнем моря 48 м.

В архиве по умолчанию представлена погода в Ревонлахти за последнюю неделю. Архивные данные за месяц целиком и за предыдущие месяцы, начиная с января 2011 года, Вы можете получить, выбрав интересующий диапазон дат из раскрывающегося списка и нажав кнопку "Ввод!".


*Определитесь, кто Вы:
робот инопланетянин человек

Внимание! Время в таблицах - всемирное. Для получения местного времени необходимо прибавить поправку, которая равна 1 ч.

Смотрите также архив погоды в соседних городах и на ближайших метеорологических станциях:

Погода в Оулунсало Пеллонпаа (Финляндия) (32 км)
Погода в Раахе Лапалуто (Финляндия) (32 км)
Погода в Оулу (Финляндия) (39 км)
Погода в Хайлуото (Финляндия) (41 км)
Погода на Маяке Marjaniemi (Финляндия) (47 км)
Погода на Маяке Nahkiainen (Финляндия) (57 км)
Погода на Гуфускаларе (Исландия) (60 км)
Погода в Мустиккамаки (Финляндия) (62 км)
Погода в Ваала Пэлсо (Финляндия) (67 км)
Погода в Юливиеске (Финляндия) (72 км)

Пояснения к столбцам:

Ветер - указаны скорость ветра в м/с - средняя за 10 мин, порывы в срок и между сроками (в фигурных скобках) и направление, откуда дует ветер: С - северный, СВ - северо-восточный, В - восточный, ЮВ - юго-восточный, Ю - южный, ЮЗ - юго-западный, З - западный, СЗ - северо-западный.
Видимость - горизонтальная дальность видимости в метрах или километрах. При видимости от 1 до 10 км при отсутствии осадков обычно наблюдается дымка, при ухудшении видимости до 1 км и менее - туман. В сухую погоду видимость может ухудшаться дымом, пылью или мглою.
Явления - указаны атмосферные явления, наблюдавшиеся в срок или в последний час перед сроком; фигурными скобками обозначены явления, наблюдавшиеся между сроками (за 1-3 часа до срока); квадратными скобками обозначены град или гололедные отложения с указанием их диаметра в мм.
Облачность - указаны через наклонную черту общая и нижняя облачность в баллах и высота нижней границы облаков в метрах; квадратными скобками обозначены формы облаков: Ci - перистые, Cs - перисто-слоистые, Cc - перисто-кучевые, Ac - высококучевые, As - высокослоистые, Sc - слоисто-кучевые, Ns - слоисто-дождевые, Cu - кучевые, Cb - кучево-дождевые. Подробнее классификацию облаков см. в Атласе облаков (PDF).
T - Температура воздуха - температура, измеренная на высоте 2 м над землей.
Td - Температура точки росы - температура, при понижении до которой содержащийся в воздухе водяной пар достигнет насыщения.
f - Относительная влажность воздуха - влажноcть воздуха, измеренная на высоте 2 м над землей.
Te - Эффективная температура - температура, которую ощущает одетый по сезону человек в тени. Характеристика душности погоды. При расчете учитывается влияние влажности воздуха и скорости ветра на теплоощущения человека.
Tes - Эффективная температура на солнце - температура, которую ощущает человек, с поправкой на солнечный нагрев. Характеристика знойности погоды. Зависит от высоты солнца над горизонтом, облачности и скорости ветра. Ночью, в пасмурную погоду, а также при ветре 12 м/с и более поправка равна нулю.
P - Атмосферное давление - приведенное к уровню моря атмосферное давление.
Po - Атмосферное давление - измеренное на уровне метеостанции атмосферное давление.
Tmin - Минимальная температура - минимум температуры воздуха на высоте 2 м над землей.
Tmax - Максимальная температура - максимум температуры воздуха на высоте 2 м над землей.
R - Количество осадков - Количество выпавших осадков за период времени, мм. При наведении курсора мыши на число - период времени, за который выпало указанное количество осадков.
R24 - Количество осадков - Количество выпавших осадков за 24 часа, мм.
S - Снежный покров - Высота снежного покрова, см. При наведении курсора мыши на число - состояние снежного покрова и степень покрытия местности в баллах.